Regional Weather Roundup
Issued by NWS Green Bay, WI

Home | Current Version | Previous Version | Graphics & Text | Print | Product List | Glossary Off
Versions: 1 2 3 4 5 6 7 8 9 10 11 12 13 14 15 16 17 18 19 20 21 22 23 24 25 26 27 28 29 30 31 32 33 34 35 36 37 38 39 40 41 42 43 44 45 46 47 48 49 50

619
ASUS43 KGRB 232000
RWRGRB

NORTH-CENTRAL AND NORTHEAST WISCONSIN REGIONAL WEATHER ROUNDUP
NATIONAL WEATHER SERVICE GREEN BAY WI
300 PM CDT FRI JUN 23 2017

WIZ005-009-010>012-018-019-232100-
NORTH CENTRAL WISCONSIN

CITY           SKY/WX    TMP DP  RH WIND       PRES   REMARKS
IRONWOOD       PTSUNNY   66  48  52 NW20      29.70R
MANITOWISH WTR NOT AVBL
ARBOR VITAE    NOT AVBL
EAGLE RIVER    NOT AVBL
LAND O LAKES   MOSUNNY   66  46  46 NW13G21   29.70R
RHINELANDER    CLOUDY    68  52  56 W10       29.70S
PHILLIPS       NOT AVBL
ANTIGO         NOT AVBL
TOMAHAWK       NOT AVBL
MERRILL        MOSUNNY   70  51  50 NW15G24   29.70F
$$

WIZ013-073-232100-
NORTHEAST WISCONSIN

CITY           SKY/WX    TMP DP  RH WIND       PRES   REMARKS
IRON MOUNTAIN  MOSUNNY   72  45  37 NW14G22   29.62S
MARINETTE      MOSUNNY   76  48  37 NW8G20    29.61S
$$

WIZ017-030-035>037-045-232100-
CENTRAL WISCONSIN

CITY           SKY/WX    TMP DP  RH WIND       PRES   REMARKS
MEDFORD        NOT AVBL
WAUSAU         PTSUNNY   70  51  51 W18G25    29.69S
MOSINEE        PTSUNNY   68  52  56 W15G21    29.72S
MARSHFIELD     CLOUDY    67  51  56 W15G23    29.73R
WISC RAPIDS    LGT RAIN  74  53  48 NW16G23   29.73R
STEVENS POINT  NOT AVBL
WAUPACA        MOSUNNY   78  48  34 W14G24    29.69R
SHAWANO        NOT AVBL
CLINTONVILLE   NOT AVBL
WAUTOMA        MOSUNNY   77  52  41 W20G28    29.70R
$$

WIZ038-039-048-051-232100-
FOX VALLEY

CITY           SKY/WX    TMP DP  RH WIND       PRES   REMARKS
NWS GREEN BAY  MOSUNNY   77  53  43 W18G26    29.65R
APPLETON       PTSUNNY   75  46  35 W18G26    29.66S
OSHKOSH        MOSUNNY   77  52  41 W14G24    29.65F
FOND DU LAC    MOSUNNY   78  51  38 W16G28    29.66F
$$

WIZ022-050-052-232100-
EAST CENTRAL WISCONSIN

CITY           SKY/WX    TMP DP  RH WIND       PRES   REMARKS
EPHRAIM        NOT AVBL
WASHINGTON ISL NOT AVBL
STURGEON BAY     N/A     77  51  40 W13G21      N/A
MANITOWOC      NOT AVBL
SHEBOYGAN      MOSUNNY   78  56  46 W21       29.66S
$$

LMZ563-521-522-541>543-232100-
LAKESHORE

STATION/POSITION TIME  TEMP    WIND        PRES    VSBY  WAVE
                       AIR SEA DIR/SP/G                  HT/PER
                 (UTC) (F)     (DEG/KT/KT) (MB)    (MI)  (FT/S)
SHEBOYGAN LKSHOR 1900   77     290/ 18/ 21 1003.7S
KEWAUNEE LKSHORE 1930   77     270/ 13/ 18 1003.2R
NORTHPORT PIER   1940   78     280/  6/ 13 1002.0S
N MID LAKE BUOY  1850   61 57  200/ 10/ 10 1003.0F         1
S GREEN BAY BUOY 1930   73     260/ 16/ 17 1002.9F
CHAMBERS ISLAND  1940   76     240/  8/ 15 1002.4S
MENOMINEE LKSHOR 1924          270/ 12/ 23 1001.9
$$




USA.gov is the U.S. government's official web portal to all federal, state and local government web resources and services.